Time,TemperatureF,DewpointF,PressureIn,WindDirection,WindDirectionDegrees,WindSpeedMPH,WindSpeedGustMPH,Humidity,HourlyPrecipIn,Conditions,Clouds,dailyrainin,SolarRadiationWatts/m^2,SoftwareType,DateUTC
2013-05-04 00:01:00,43.5,43.5,30.08,ENE,64,3.5,3.6,100,0.00,RA,OVC,0.00,0.0,WeatherDisplay:10.37,2013-05-04 05:01:00,
2013-05-04 00:06:00,43.5,43.5,30.08,ENE,67,3.5,3.5,100,0.00,RA,OVC,0.00,0.0,WeatherDisplay:10.37,2013-05-04 05:06:00,
2013-05-04 00:11:00,43.5,43.5,30.08,NE,55,3.5,3.5,100,0.00,BKN,OVC,0.00,0.0,WeatherDisplay:10.37,2013-05-04 05:11:00,
2013-05-04 00:16:00,43.5,43.5,30.08,ENE,77,5.8,5.8,100,0.00,BKN,OVC,0.00,0.0,WeatherDisplay:10.37,2013-05-04 05:16:00,
2013-05-04 00:21:00,43.5,43.5,30.08,NE,46,3.5,3.5,100,0.00,BKN,OVC,0.00,0.0,WeatherDisplay:10.37,2013-05-04 05:21:00,
2013-05-04 00:26:00,43.5,43.5,30.08,NE,38,5.8,5.8,100,0.00,BKN,OVC,0.00,0.0,WeatherDisplay:10.37,2013-05-04 05:26:00,
2013-05-04 00:31:00,43.5,43.5,30.08,NNE,24,3.5,3.5,100,0.00,BKN,OVC,0.00,0.0,WeatherDisplay:10.37,2013-05-04 05:31:00,
2013-05-04 00:36:00,43.5,43.5,30.08,NE,46,2.3,2.3,100,0.00,BKN,OVC,0.00,0.0,WeatherDisplay:10.37,2013-05-04 05:36:00,
2013-05-04 00:41:00,43.3,43.3,30.08,NE,48,3.5,3.5,100,0.00,BKN,OVC,0.00,0.0,WeatherDisplay:10.37,2013-05-04 05:41:00,
2013-05-04 00:46:00,43.3,43.3,30.08,NE,44,3.5,3.5,100,0.00,BKN,OVC,0.00,0.0,WeatherDisplay:10.37,2013-05-04 05:46:00,
2013-05-04 00:51:00,43.3,43.3,30.08,NE,45,3.5,0.0,100,0.00,BKN,OVC,0.00,0.0,WeatherDisplay:10.37,2013-05-04 05:51:00,
2013-05-04 00:56:00,43.3,43.3,30.08,NE,53,2.3,0.0,100,0.00,OVC,,0.00,0.0,WeatherDisplay:10.37,2013-05-04 05:56:00,
2013-05-04 01:01:00,43.5,43.5,30.08,ENE,71,0.0,0.0,100,0.00,OVC,,0.00,0.0,WeatherDisplay:10.37,2013-05-04 06:01:00,
2013-05-04 01:06:00,43.5,43.5,30.08,ENE,73,2.3,0.0,100,0.00,OVC,,0.00,0.0,WeatherDisplay:10.37,2013-05-04 06:06:00,
2013-05-04 01:11:00,43.5,43.5,30.08,East,82,2.3,0.0,100,0.00,OVC,,0.00,0.0,WeatherDisplay:10.37,2013-05-04 06:11:00,
2013-05-04 01:16:00,43.5,43.5,30.08,ENE,71,3.5,3.5,100,0.00,OVC,,0.00,0.0,WeatherDisplay:10.37,2013-05-04 06:16:00,
2013-05-04 01:21:00,43.5,43.5,30.08,East,79,5.8,5.8,100,0.00,OVC,,0.00,0.0,WeatherDisplay:10.37,2013-05-04 06:21:00,
2013-05-04 01:26:00,43.5,43.5,30.08,ENE,59,3.1,0.0,100,0.00,OVC,,0.00,0.0,WeatherDisplay:10.37,2013-05-04 06:26:00,
2013-05-04 01:31:00,43.5,43.5,30.08,East,84,3.5,0.0,100,0.00,OVC,,0.00,0.0,WeatherDisplay:10.37,2013-05-04 06:31:00,
2013-05-04 01:36:00,43.5,43.5,30.08,NE,45,5.8,5.8,100,0.00,OVC,,0.00,0.0,WeatherDisplay:10.37,2013-05-04 06:36:00,
2013-05-04 01:41:00,43.5,43.5,30.08,East,84,3.5,3.5,100,0.00,OVC,,0.00,0.0,WeatherDisplay:10.37,2013-05-04 06:41:00,
2013-05-04 01:46:00,43.5,43.5,30.08,NE,53,2.3,0.0,100,0.00,OVC,,0.00,0.0,WeatherDisplay:10.37,2013-05-04 06:46:00,
2013-05-04 01:51:00,43.5,43.5,30.08,NE,51,4.6,4.6,100,0.00,OVC,,0.00,0.0,WeatherDisplay:10.37,2013-05-04 06:51:00,
2013-05-04 01:56:00,43.5,43.5,30.08,NE,55,3.5,3.5,100,0.00,OVC,,0.00,0.0,WeatherDisplay:10.37,2013-05-04 06:56:00,
2013-05-04 02:01:00,43.3,43.3,30.05,NE,41,2.3,2.3,100,0.00,OVC,,0.00,0.0,WeatherDisplay:10.37,2013-05-04 07:01:00,
2013-05-04 02:06:00,43.3,43.3,30.05,ENE,65,3.6,3.6,100,0.00,-RA,OVC,0.00,0.0,WeatherDisplay:10.37,2013-05-04 07:06:00,
2013-05-04 02:11:00,43.3,43.3,30.05,ENE,60,2.3,0.0,100,0.00,-RA,OVC,0.00,0.0,WeatherDisplay:10.37,2013-05-04 07:11:00,
2013-05-04 02:16:00,43.3,43.3,30.05,NE,48,6.3,0.0,100,0.00,-RA,OVC,0.00,0.0,WeatherDisplay:10.37,2013-05-04 07:16:00,
2013-05-04 02:21:00,43.3,43.3,30.05,NE,38,3.5,3.5,100,0.00,-RA,OVC,0.00,0.0,WeatherDisplay:10.37,2013-05-04 07:21:00,
2013-05-04 02:26:00,43.3,43.3,30.05,East,82,5.8,5.8,100,0.00,-RA,OVC,0.00,0.0,WeatherDisplay:10.37,2013-05-04 07:26:00,
2013-05-04 02:31:00,43.3,43.3,30.05,NE,38,5.8,5.8,100,0.00,-RA,OVC,0.00,0.0,WeatherDisplay:10.37,2013-05-04 07:31:00,
2013-05-04 02:36:00,43.3,43.3,30.05,NE,47,3.5,3.5,100,0.00,-RA,OVC,0.00,0.0,WeatherDisplay:10.37,2013-05-04 07:36:00,
2013-05-04 02:41:00,43.5,43.5,30.05,NE,43,4.0,4.0,100,0.00,-RA,OVC,0.00,0.0,WeatherDisplay:10.37,2013-05-04 07:41:00,
2013-05-04 02:46:00,43.3,43.3,30.05,NE,54,3.5,3.5,100,0.00,-RA,OVC,0.00,0.0,WeatherDisplay:10.37,2013-05-04 07:46:00,
2013-05-04 02:51:00,43.3,43.3,30.05,NE,54,3.5,3.5,100,0.00,-RA,OVC,0.00,0.0,WeatherDisplay:10.37,2013-05-04 07:51:00,
2013-05-04 02:56:00,43.3,43.3,30.05,East,83,5.8,5.8,100,0.00,-RA,OVC,0.00,0.0,WeatherDisplay:10.37,2013-05-04 07:56:00,
2013-05-04 03:01:00,43.3,43.3,30.05,ENE,60,3.5,3.5,100,0.00,-RA,OVC,0.00,0.0,WeatherDisplay:10.37,2013-05-04 08:01:00,
2013-05-04 03:06:00,43.3,43.3,30.05,ENE,63,3.5,3.5,100,0.00,BKN,OVC,0.00,0.0,WeatherDisplay:10.37,2013-05-04 08:06:00,
2013-05-04 03:11:00,43.3,43.3,30.05,NE,52,3.0,7.0,100,0.00,BKN,OVC,0.00,0.0,WeatherDisplay:10.37,2013-05-04 08:11:00,
2013-05-04 03:16:00,43.3,43.3,30.05,ENE,76,5.8,5.8,100,0.00,BKN,OVC,0.00,0.0,WeatherDisplay:10.37,2013-05-04 08:16:00,
2013-05-04 03:21:00,43.3,43.3,30.05,ENE,76,3.5,3.5,100,0.00,BKN,OVC,0.00,0.0,WeatherDisplay:10.37,2013-05-04 08:21:00,
2013-05-04 03:26:00,43.3,43.3,30.05,ENE,74,5.8,5.8,100,0.00,BKN,OVC,0.00,0.0,WeatherDisplay:10.37,2013-05-04 08:26:00,
2013-05-04 03:31:00,43.3,43.3,30.05,ENE,76,4.6,4.6,100,0.00,BKN,OVC,0.00,0.0,WeatherDisplay:10.37,2013-05-04 08:31:00,
2013-05-04 03:36:00,43.3,43.3,30.05,East,94,2.3,0.0,100,0.00,BKN,OVC,0.00,0.0,WeatherDisplay:10.37,2013-05-04 08:36:00,
2013-05-04 03:41:00,43.2,43.2,30.05,NE,48,5.8,5.8,100,0.00,BKN,OVC,0.00,0.0,WeatherDisplay:10.37,2013-05-04 08:41:00,
2013-05-04 03:46:00,43.2,43.2,30.05,NE,44,5.8,5.8,100,0.00,BKN,OVC,0.00,0.0,WeatherDisplay:10.37,2013-05-04 08:46:00,
2013-05-04 03:51:00,43.2,43.2,30.05,NE,48,3.5,3.5,100,0.00,BKN,OVC,0.00,0.0,WeatherDisplay:10.37,2013-05-04 08:51:00,
2013-05-04 03:56:00,43.2,43.2,30.05,ENE,63,2.3,2.3,100,0.00,BKN,OVC,0.00,0.0,WeatherDisplay:10.37,2013-05-04 08:56:00,
2013-05-04 04:01:00,43.0,43.0,30.05,East,80,3.5,3.6,100,0.00,BKN,OVC,0.00,0.0,WeatherDisplay:10.37,2013-05-04 09:01:00,
2013-05-04 04:06:00,43.0,43.0,30.05,NE,50,4.0,4.0,100,0.00,BKN,OVC,0.00,0.0,WeatherDisplay:10.37,2013-05-04 09:06:00,
2013-05-04 04:11:00,43.0,43.0,30.05,NE,52,3.5,3.5,100,0.00,BKN,OVC,0.00,0.0,WeatherDisplay:10.37,2013-05-04 09:11:00,
2013-05-04 04:16:00,43.0,43.0,30.05,ENE,64,5.8,5.8,100,0.00,BKN,OVC,0.00,0.0,WeatherDisplay:10.37,2013-05-04 09:16:00,
2013-05-04 04:20:00,43.0,43.0,30.05,ENE,70,5.8,5.8,100,0.00,BKN,OVC,0.00,0.0,WeatherDisplay:10.37,2013-05-04 09:20:00,
2013-05-04 04:25:00,43.0,43.0,30.05,East,82,3.5,3.5,100,0.00,BKN,OVC,0.00,0.0,WeatherDisplay:10.37,2013-05-04 09:25:00,
2013-05-04 04:30:00,43.0,43.0,30.05,NE,56,3.5,3.5,100,0.00,BKN,OVC,0.00,0.0,WeatherDisplay:10.37,2013-05-04 09:30:00,
2013-05-04 04:35:00,42.8,42.8,30.05,SE,132,3.5,3.5,100,0.00,BKN,OVC,0.00,0.0,WeatherDisplay:10.37,2013-05-04 09:35:00,
2013-05-04 04:40:00,42.8,42.8,30.05,ENE,77,2.3,0.0,100,0.00,BKN,OVC,0.00,0.0,WeatherDisplay:10.37,2013-05-04 09:40:00,
2013-05-04 04:45:00,42.8,42.8,30.05,ENE,78,5.8,5.8,100,0.00,BKN,OVC,0.00,0.0,WeatherDisplay:10.37,2013-05-04 09:45:00,
2013-05-04 04:50:00,42.8,42.8,30.05,NE,48,5.8,5.8,100,0.00,BKN,OVC,0.00,0.0,WeatherDisplay:10.37,2013-05-04 09:50:00,
2013-05-04 04:55:00,42.8,42.8,30.05,ENE,69,3.5,3.5,100,0.00,BKN,OVC,0.00,0.0,WeatherDisplay:10.37,2013-05-04 09:55:00,
2013-05-04 05:00:00,42.8,42.8,30.05,ENE,63,3.5,0.0,100,0.00,BKN,OVC,0.00,0.0,WeatherDisplay:10.37,2013-05-04 10:00:00,
2013-05-04 05:05:00,42.8,42.8,30.05,NE,54,3.5,3.5,100,0.00,BKN,OVC,0.00,0.0,WeatherDisplay:10.37,2013-05-04 10:05:00,
2013-05-04 05:10:00,42.8,42.8,30.05,East,93,3.5,3.5,100,0.00,BKN,OVC,0.00,0.0,WeatherDisplay:10.37,2013-05-04 10:10:00,
2013-05-04 05:15:00,42.6,42.6,30.05,East,82,3.5,3.5,100,0.00,BKN,OVC,0.00,0.0,WeatherDisplay:10.37,2013-05-04 10:15:00,
2013-05-04 05:20:00,42.8,42.8,30.05,East,79,5.8,5.8,100,0.00,BKN,OVC,0.00,0.0,WeatherDisplay:10.37,2013-05-04 10:20:00,
2013-05-04 05:25:00,42.8,42.8,30.05,East,90,3.5,3.5,100,0.00,BKN,OVC,0.00,0.0,WeatherDisplay:10.37,2013-05-04 10:25:00,
2013-05-04 05:30:00,42.8,42.8,30.05,ENE,73,3.5,3.5,100,0.00,BKN,OVC,0.00,0.0,WeatherDisplay:10.37,2013-05-04 10:30:00,
2013-05-04 05:35:00,43.0,43.0,30.05,ENE,74,3.5,3.6,100,0.00,BKN,OVC,0.00,0.0,WeatherDisplay:10.37,2013-05-04 10:35:00,
2013-05-04 05:40:00,43.0,43.0,30.05,East,85,3.5,3.5,100,0.00,BKN,OVC,0.00,0.0,WeatherDisplay:10.37,2013-05-04 10:40:00,
2013-05-04 05:45:00,43.0,43.0,30.08,East,80,3.5,3.5,100,0.00,BKN,OVC,0.00,0.0,WeatherDisplay:10.37,2013-05-04 10:45:00,
2013-05-04 05:50:00,43.0,43.0,30.08,East,91,3.5,3.5,100,0.00,BKN,OVC,0.00,0.0,WeatherDisplay:10.37,2013-05-04 10:50:00,
2013-05-04 05:55:00,43.2,43.2,30.08,NE,51,3.5,3.5,100,0.00,BKN,OVC,0.00,0.0,WeatherDisplay:10.37,2013-05-04 10:55:00,
2013-05-04 06:00:00,43.2,43.2,30.08,ENE,74,5.8,5.8,100,0.00,BKN,OVC,0.00,0.0,WeatherDisplay:10.37,2013-05-04 11:00:00,
2013-05-04 06:05:00,43.2,43.2,30.08,East,91,4.9,4.9,100,0.00,BKN,OVC,0.00,0.0,WeatherDisplay:10.37,2013-05-04 11:05:00,
2013-05-04 06:10:00,43.2,43.2,30.08,East,88,3.5,0.0,100,0.00,BKN,OVC,0.00,0.0,WeatherDisplay:10.37,2013-05-04 11:10:00,
2013-05-04 06:15:00,43.2,43.2,30.08,ENE,77,2.3,0.0,100,0.00,BKN,OVC,0.00,0.0,WeatherDisplay:10.37,2013-05-04 11:15:00,
2013-05-04 06:20:00,43.2,43.2,30.08,East,84,3.5,3.5,100,0.00,BKN,OVC,0.00,0.0,WeatherDisplay:10.37,2013-05-04 11:20:00,
2013-05-04 06:25:00,43.2,43.2,30.08,ENE,59,3.5,3.5,100,0.00,BKN,OVC,0.00,0.0,WeatherDisplay:10.37,2013-05-04 11:25:00,
2013-05-04 06:30:00,43.3,43.3,30.08,East,83,4.6,4.6,100,0.00,BKN,OVC,0.00,0.0,WeatherDisplay:10.37,2013-05-04 11:30:00,
2013-05-04 06:35:00,43.3,43.3,30.08,East,79,3.5,3.5,100,0.00,BKN,OVC,0.00,0.0,WeatherDisplay:10.37,2013-05-04 11:35:00,
2013-05-04 06:40:00,43.3,43.3,30.08,NE,36,3.5,0.0,100,0.00,BKN,OVC,0.00,0.0,WeatherDisplay:10.37,2013-05-04 11:40:00,
2013-05-04 06:46:00,43.3,43.3,30.08,ENE,74,3.5,3.5,100,0.00,BKN,OVC,0.00,0.0,WeatherDisplay:10.37,2013-05-04 11:46:00,
2013-05-04 06:51:00,43.5,43.5,30.08,ENE,74,2.3,2.3,100,0.00,BKN,OVC,0.00,0.0,WeatherDisplay:10.37,2013-05-04 11:51:00,
2013-05-04 06:56:00,43.7,43.7,30.08,ENE,73,3.5,3.5,100,0.00,BKN,OVC,0.00,0.0,WeatherDisplay:10.37,2013-05-04 11:56:00,
2013-05-04 07:01:00,43.9,43.9,30.08,ENE,71,0.0,0.0,100,0.00,BKN,OVC,0.00,0.0,WeatherDisplay:10.37,2013-05-04 12:01:00,
2013-05-04 07:06:00,44.1,44.1,30.08,ENE,78,3.5,0.0,100,0.00,OVC,,0.00,0.0,WeatherDisplay:10.37,2013-05-04 12:06:00,
2013-05-04 07:11:00,44.1,44.1,30.08,ENE,57,4.6,4.6,100,0.00,OVC,,0.00,0.0,WeatherDisplay:10.37,2013-05-04 12:11:00,
2013-05-04 07:16:00,44.2,44.2,30.08,ENE,71,3.5,3.5,100,0.00,OVC,,0.00,0.0,WeatherDisplay:10.37,2013-05-04 12:16:00,
2013-05-04 07:22:00,44.2,44.2,30.08,ENE,68,3.5,3.5,100,0.00,OVC,,0.00,0.0,WeatherDisplay:10.37,2013-05-04 12:22:00,
2013-05-04 07:29:00,44.6,44.6,30.08,East,88,3.5,3.5,100,0.00,OVC,,0.00,0.0,WeatherDisplay:10.37,2013-05-04 12:29:00,
2013-05-04 07:34:00,44.8,44.8,30.08,ENE,61,3.5,0.0,100,0.00,OVC,,0.00,0.0,WeatherDisplay:10.37,2013-05-04 12:34:00,
2013-05-04 07:39:00,45.1,45.1,30.08,East,97,3.5,3.5,100,0.00,OVC,,0.00,0.0,WeatherDisplay:10.37,2013-05-04 12:39:00,
2013-05-04 07:44:00,45.3,45.3,30.08,ENE,68,3.5,0.0,100,0.00,OVC,,0.00,0.0,WeatherDisplay:10.37,2013-05-04 12:44:00,
2013-05-04 07:49:00,45.7,45.7,30.08,ENE,75,3.6,3.6,100,0.00,OVC,,0.00,0.0,WeatherDisplay:10.37,2013-05-04 12:49:00,
2013-05-04 07:54:00,46.0,46.0,30.08,East,93,3.5,3.5,100,0.00,OVC,,0.00,0.0,WeatherDisplay:10.37,2013-05-04 12:54:00,
2013-05-04 07:59:00,46.4,46.1,30.08,NE,48,5.8,5.8,99,0.00,OVC,,0.00,0.0,WeatherDisplay:10.37,2013-05-04 12:59:00,
2013-05-04 08:03:00,46.8,46.5,30.08,NE,49,3.5,3.5,99,0.00,-RA,OVC,0.00,0.0,WeatherDisplay:10.37,2013-05-04 13:03:00,
2013-05-04 08:08:00,46.9,46.7,30.08,East,90,3.5,3.5,99,0.00,-RA,OVC,0.00,0.0,WeatherDisplay:10.37,2013-05-04 13:08:00,
2013-05-04 08:13:00,47.1,46.6,30.08,ENE,62,3.5,3.5,98,0.00,-RA,OVC,0.00,0.0,WeatherDisplay:10.37,2013-05-04 13:13:00,
2013-05-04 08:18:00,47.7,47.1,30.08,East,84,4.6,4.6,98,0.00,-RA,OVC,0.00,0.0,WeatherDisplay:10.37,2013-05-04 13:18:00,
2013-05-04 08:23:00,48.0,47.2,30.08,ENE,78,5.8,5.8,97,0.00,-RA,OVC,0.00,0.0,WeatherDisplay:10.37,2013-05-04 13:23:00,
2013-05-04 08:28:00,48.7,47.7,30.08,NE,39,3.5,3.5,96,0.00,-RA,OVC,0.00,0.0,WeatherDisplay:10.37,2013-05-04 13:28:00,
2013-05-04 08:33:00,49.1,47.7,30.08,ENE,63,3.5,3.5,95,0.00,-RA,OVC,0.00,0.0,WeatherDisplay:10.37,2013-05-04 13:33:00,
2013-05-04 08:38:00,49.6,46.5,30.08,ENE,69,5.8,5.8,89,0.00,-RA,OVC,0.00,0.0,WeatherDisplay:10.37,2013-05-04 13:38:00,
2013-05-04 08:43:00,50.0,46.0,30.08,ENE,59,5.8,5.8,86,0.00,-RA,OVC,0.00,0.0,WeatherDisplay:10.37,2013-05-04 13:43:00,
2013-05-04 08:48:00,49.8,45.8,30.08,ENE,71,4.0,4.0,86,0.00,-RA,OVC,0.00,0.0,WeatherDisplay:10.37,2013-05-04 13:48:00,
2013-05-04 08:53:00,49.6,45.3,30.08,NE,46,3.5,3.5,85,0.00,-RA,OVC,0.00,0.0,WeatherDisplay:10.37,2013-05-04 13:53:00,
2013-05-04 08:58:00,49.5,44.5,30.08,East,79,5.8,5.8,83,0.00,-RA,OVC,0.00,0.0,WeatherDisplay:10.37,2013-05-04 13:58:00,
2013-05-04 09:03:00,49.8,45.2,30.08,ESE,111,3.5,0.0,84,0.00,OVC,,0.00,0.0,WeatherDisplay:10.37,2013-05-04 14:03:00,
2013-05-04 09:08:00,50.4,45.4,30.08,NE,45,3.5,3.5,83,0.00,OVC,,0.00,0.0,WeatherDisplay:10.37,2013-05-04 14:08:00,
2013-05-04 09:13:00,51.3,46.6,30.08,East,89,3.5,3.5,84,0.00,OVC,,0.00,0.0,WeatherDisplay:10.37,2013-05-04 14:13:00,
2013-05-04 09:18:00,52.0,46.7,30.08,East,79,4.6,4.6,82,0.00,OVC,,0.00,0.0,WeatherDisplay:10.37,2013-05-04 14:18:00,
2013-05-04 09:23:00,52.7,46.4,30.08,East,84,3.5,0.0,79,0.00,OVC,,0.00,0.0,WeatherDisplay:10.37,2013-05-04 14:23:00,
2013-05-04 09:28:00,53.1,46.4,30.08,NE,54,3.5,3.5,78,0.00,OVC,,0.00,0.0,WeatherDisplay:10.37,2013-05-04 14:28:00,
2013-05-04 09:33:00,53.2,45.9,30.08,East,98,3.5,0.0,76,0.00,OVC,,0.00,0.0,WeatherDisplay:10.37,2013-05-04 14:33:00,
2013-05-04 09:38:00,53.4,45.7,30.08,ENE,72,5.8,5.8,75,0.00,OVC,,0.00,0.0,WeatherDisplay:10.37,2013-05-04 14:38:00,
2013-05-04 09:43:00,53.8,45.3,30.08,ESE,105,4.6,0.0,73,0.00,OVC,,0.00,0.0,WeatherDisplay:10.37,2013-05-04 14:43:00,
2013-05-04 09:48:00,54.1,45.7,30.08,ENE,72,3.5,3.6,73,0.00,OVC,,0.00,0.0,WeatherDisplay:10.37,2013-05-04 14:48:00,
2013-05-04 09:53:00,54.7,46.2,30.08,ENE,73,2.3,0.0,73,0.00,OVC,,0.00,0.0,WeatherDisplay:10.37,2013-05-04 14:53:00,
2013-05-04 09:58:00,55.2,46.3,30.08,ENE,70,4.6,4.6,72,0.00,OVC,,0.00,0.0,WeatherDisplay:10.37,2013-05-04 14:58:00,
2013-05-04 10:03:00,55.6,46.3,30.08,East,94,4.6,4.6,71,0.00,BKN,OVC,0.00,0.0,WeatherDisplay:10.37,2013-05-04 15:03:00,
2013-05-04 10:08:00,55.9,46.3,30.08,ENE,78,2.3,2.7,70,0.00,BKN,OVC,0.00,0.0,WeatherDisplay:10.37,2013-05-04 15:08:00,
2013-05-04 10:13:00,56.1,45.7,30.08,ESE,120,2.3,0.0,68,0.00,BKN,OVC,0.00,0.0,WeatherDisplay:10.37,2013-05-04 15:13:00,
2013-05-04 10:18:00,56.7,45.8,30.08,NE,42,3.5,0.0,67,0.00,BKN,OVC,0.00,0.0,WeatherDisplay:10.37,2013-05-04 15:18:00,
2013-05-04 10:23:00,57.2,47.1,30.08,East,83,3.5,3.5,69,0.00,BKN,OVC,0.00,0.0,WeatherDisplay:10.37,2013-05-04 15:23:00,
2013-05-04 10:28:00,57.6,47.1,30.08,ENE,66,4.6,4.6,68,0.00,BKN,OVC,0.00,0.0,WeatherDisplay:10.37,2013-05-04 15:28:00,
2013-05-04 10:33:00,58.1,47.2,30.08,ESE,113,2.3,0.0,67,0.00,BKN,OVC,0.00,0.0,WeatherDisplay:10.37,2013-05-04 15:33:00,
2013-05-04 10:38:00,58.8,47.9,30.08,North,11,0.0,0.0,67,0.00,BKN,OVC,0.00,0.0,WeatherDisplay:10.37,2013-05-04 15:38:00,
2013-05-04 10:43:00,58.8,47.5,30.08,NNE,22,3.5,0.0,66,0.00,BKN,OVC,0.00,0.0,WeatherDisplay:10.37,2013-05-04 15:43:00,
2013-05-04 10:48:00,59.4,47.2,30.08,East,79,3.5,3.5,64,0.00,BKN,OVC,0.00,0.0,WeatherDisplay:10.37,2013-05-04 15:48:00,
2013-05-04 10:53:00,60.1,47.4,30.08,NE,43,3.5,0.0,63,0.00,BKN,OVC,0.00,0.0,WeatherDisplay:10.37,2013-05-04 15:53:00,
2013-05-04 10:58:00,60.6,48.4,30.08,ESE,108,2.3,0.0,64,0.00,BKN,OVC,0.00,0.0,WeatherDisplay:10.37,2013-05-04 15:58:00,
2013-05-04 11:03:00,61.3,48.6,30.08,NE,54,3.5,3.5,63,0.00,BKN,OVC,0.00,0.0,WeatherDisplay:10.37,2013-05-04 16:03:00,
2013-05-04 11:08:00,62.1,49.3,30.08,NE,54,0.0,0.0,63,0.00,BKN,OVC,0.00,0.0,WeatherDisplay:10.37,2013-05-04 16:08:00,
2013-05-04 11:13:00,62.6,49.4,30.08,NE,51,3.5,0.0,62,0.00,BKN,OVC,0.00,0.0,WeatherDisplay:10.37,2013-05-04 16:13:00,
2013-05-04 11:18:00,62.6,49.0,30.08,NE,50,3.6,3.6,61,0.00,BKN,OVC,0.00,0.0,WeatherDisplay:10.37,2013-05-04 16:18:00,
2013-05-04 11:23:00,62.6,49.0,30.08,ENE,59,5.8,5.8,61,0.00,BKN,OVC,0.00,0.0,WeatherDisplay:10.37,2013-05-04 16:23:00,
2013-05-04 11:28:00,62.4,49.2,30.08,NE,42,3.5,3.5,62,0.00,BKN,OVC,0.00,0.0,WeatherDisplay:10.37,2013-05-04 16:28:00,
2013-05-04 11:33:00,63.0,49.7,30.08,NE,39,5.8,5.8,62,0.00,BKN,OVC,0.00,0.0,WeatherDisplay:10.37,2013-05-04 16:33:00,
2013-05-04 11:38:00,63.9,50.6,30.08,East,87,3.5,3.5,62,0.00,BKN,OVC,0.00,0.0,WeatherDisplay:10.37,2013-05-04 16:38:00,
2013-05-04 11:43:00,64.2,50.5,30.08,NNE,21,4.6,4.6,61,0.00,BKN,OVC,0.00,0.0,WeatherDisplay:10.37,2013-05-04 16:43:00,
2013-05-04 11:48:00,64.2,50.0,30.08,NE,51,2.3,0.0,60,0.00,BKN,OVC,0.00,0.0,WeatherDisplay:10.37,2013-05-04 16:48:00,
2013-05-04 11:53:00,64.0,49.9,30.08,ESE,108,4.6,4.6,60,0.00,BKN,OVC,0.00,0.0,WeatherDisplay:10.37,2013-05-04 16:53:00,
2013-05-04 11:58:00,63.9,50.1,30.08,NNE,22,3.5,3.5,61,0.00,BKN,OVC,0.00,0.0,WeatherDisplay:10.37,2013-05-04 16:58:00,
2013-05-04 12:03:00,64.4,50.7,30.08,NNE,27,3.5,3.5,61,0.00,SCT,OVC,0.00,0.0,WeatherDisplay:10.37,2013-05-04 17:03:00,
2013-05-04 12:08:00,64.8,51.0,30.08,NE,42,2.3,0.0,61,0.00,SCT,OVC,0.00,0.0,WeatherDisplay:10.37,2013-05-04 17:08:00,
2013-05-04 12:13:00,65.8,51.6,30.08,East,100,3.5,3.5,60,0.00,SCT,OVC,0.00,0.0,WeatherDisplay:10.37,2013-05-04 17:13:00,
2013-05-04 12:18:00,66.4,51.2,30.08,NE,37,4.6,4.6,58,0.00,SCT,OVC,0.00,0.0,WeatherDisplay:10.37,2013-05-04 17:18:00,
2013-05-04 12:23:00,66.6,51.3,30.08,NE,49,3.5,3.5,58,0.00,SCT,OVC,0.00,0.0,WeatherDisplay:10.37,2013-05-04 17:23:00,
2013-05-04 12:28:00,67.1,51.8,30.08,ENE,68,3.5,3.5,58,0.00,SCT,OVC,0.00,0.0,WeatherDisplay:10.37,2013-05-04 17:28:00,
2013-05-04 12:33:00,67.6,52.3,30.08,East,90,3.5,3.5,58,0.00,SCT,OVC,0.00,0.0,WeatherDisplay:10.37,2013-05-04 17:33:00,
2013-05-04 12:38:00,68.2,52.4,30.08,North,11,3.5,3.5,57,0.00,SCT,OVC,0.00,0.0,WeatherDisplay:10.37,2013-05-04 17:38:00,
2013-05-04 12:43:00,67.8,52.0,30.05,ESE,112,4.6,4.6,57,0.00,SCT,OVC,0.00,0.0,WeatherDisplay:10.37,2013-05-04 17:43:00,
2013-05-04 12:48:00,67.5,52.2,30.05,NE,55,5.8,5.8,58,0.00,SCT,OVC,0.00,0.0,WeatherDisplay:10.37,2013-05-04 17:48:00,
2013-05-04 12:53:00,67.3,52.0,30.05,East,85,4.6,4.6,58,0.00,SCT,OVC,0.00,0.0,WeatherDisplay:10.37,2013-05-04 17:53:00,
2013-05-04 12:58:00,67.6,52.3,30.05,ENE,71,3.5,3.5,58,0.00,SCT,OVC,0.00,0.0,WeatherDisplay:10.37,2013-05-04 17:58:00,
2013-05-04 13:03:00,67.8,52.5,30.05,NE,39,3.5,3.5,58,0.00,FEW,OVC,0.00,0.0,WeatherDisplay:10.37,2013-05-04 18:03:00,
2013-05-04 13:08:00,68.2,52.4,30.05,East,86,4.6,4.6,57,0.00,FEW,OVC,0.00,0.0,WeatherDisplay:10.37,2013-05-04 18:08:00,
2013-05-04 13:13:00,68.2,52.4,30.05,SE,142,3.5,3.6,57,0.00,FEW,OVC,0.00,0.0,WeatherDisplay:10.37,2013-05-04 18:13:00,
2013-05-04 13:18:00,68.5,52.7,30.05,SE,128,3.5,3.5,57,0.00,FEW,OVC,0.00,0.0,WeatherDisplay:10.37,2013-05-04 18:18:00,
2013-05-04 13:23:00,68.7,52.4,30.05,ENE,72,3.5,0.0,56,0.00,FEW,OVC,0.00,0.0,WeatherDisplay:10.37,2013-05-04 18:23:00,
2013-05-04 13:28:00,69.1,52.2,30.05,ENE,63,3.5,3.5,55,0.00,FEW,OVC,0.00,0.0,WeatherDisplay:10.37,2013-05-04 18:28:00,
2013-05-04 13:33:00,69.4,53.1,30.05,ENE,65,4.6,4.6,56,0.00,FEW,OVC,0.00,0.0,WeatherDisplay:10.37,2013-05-04 18:33:00,
2013-05-04 13:38:00,69.8,52.9,30.05,ENE,63,3.5,3.5,55,0.00,FEW,OVC,0.00,0.0,WeatherDisplay:10.37,2013-05-04 18:38:00,
2013-05-04 13:43:00,70.0,52.6,30.05,East,88,3.5,3.5,54,0.00,FEW,OVC,0.00,0.0,WeatherDisplay:10.37,2013-05-04 18:43:00,
2013-05-04 13:48:00,70.7,52.7,30.05,SE,128,3.5,0.0,53,0.00,FEW,OVC,0.00,0.0,WeatherDisplay:10.37,2013-05-04 18:48:00,
2013-05-04 13:53:00,71.2,53.2,30.05,East,94,3.5,3.5,53,0.00,FEW,OVC,0.00,0.0,WeatherDisplay:10.37,2013-05-04 18:53:00,
2013-05-04 13:58:00,71.4,52.3,30.05,South,171,3.5,3.5,51,0.00,FEW,OVC,0.00,0.0,WeatherDisplay:10.37,2013-05-04 18:58:00,
2013-05-04 14:03:00,71.4,52.3,30.05,ESE,115,2.3,0.0,51,0.00,CLR,OVC,0.00,0.0,WeatherDisplay:10.37,2013-05-04 19:03:00,
2013-05-04 14:08:00,71.6,52.0,30.05,East,88,3.5,3.6,50,0.00,CLR,OVC,0.00,0.0,WeatherDisplay:10.37,2013-05-04 19:08:00,
2013-05-04 14:13:00,71.8,52.7,30.05,ENE,60,2.3,0.0,51,0.00,CLR,OVC,0.00,0.0,WeatherDisplay:10.37,2013-05-04 19:13:00,
2013-05-04 14:18:00,72.1,52.5,30.05,East,96,2.3,0.0,50,0.00,CLR,OVC,0.00,0.0,WeatherDisplay:10.37,2013-05-04 19:18:00,
2013-05-04 14:23:00,72.3,52.6,30.05,East,84,3.5,3.6,50,0.00,CLR,OVC,0.00,0.0,WeatherDisplay:10.37,2013-05-04 19:23:00,
2013-05-04 14:28:00,72.7,52.4,30.05,ENE,72,5.8,5.8,49,0.00,CLR,OVC,0.00,0.0,WeatherDisplay:10.37,2013-05-04 19:28:00,
2013-05-04 14:33:00,72.5,52.2,30.05,ENE,63,3.5,3.5,49,0.00,CLR,OVC,0.00,0.0,WeatherDisplay:10.37,2013-05-04 19:33:00,
2013-05-04 14:38:00,72.1,51.9,30.05,SE,129,5.8,5.8,49,0.00,CLR,OVC,0.00,0.0,WeatherDisplay:10.37,2013-05-04 19:38:00,
2013-05-04 14:43:00,72.0,51.8,30.02,ENE,77,3.5,3.6,49,0.00,CLR,OVC,0.00,0.0,WeatherDisplay:10.37,2013-05-04 19:43:00,
2013-05-04 14:48:00,71.6,50.9,30.02,NNE,33,3.5,3.5,48,0.00,CLR,OVC,0.00,0.0,WeatherDisplay:10.37,2013-05-04 19:48:00,
2013-05-04 14:53:00,71.6,51.4,30.02,ESE,117,3.5,3.5,49,0.00,CLR,OVC,0.00,0.0,WeatherDisplay:10.37,2013-05-04 19:53:00,
2013-05-04 14:58:00,72.0,51.2,30.02,SE,134,5.8,5.8,48,0.00,CLR,OVC,0.00,0.0,WeatherDisplay:10.37,2013-05-04 19:58:00,
2013-05-04 15:03:00,72.0,51.2,30.02,NE,37,3.5,0.0,48,0.00,CLR,OVC,0.00,0.0,WeatherDisplay:10.37,2013-05-04 20:03:00,
2013-05-04 15:08:00,72.0,51.2,30.02,SSE,165,4.6,4.6,48,0.00,CLR,OVC,0.00,0.0,WeatherDisplay:10.37,2013-05-04 20:08:00,
2013-05-04 15:13:00,72.1,50.8,30.02,ENE,69,8.1,8.1,47,0.00,CLR,OVC,0.00,0.0,WeatherDisplay:10.37,2013-05-04 20:13:00,
2013-05-04 15:18:00,72.3,51.0,30.02,ENE,70,5.8,5.8,47,0.00,CLR,OVC,0.00,0.0,WeatherDisplay:10.37,2013-05-04 20:18:00,
2013-05-04 15:23:00,72.5,51.1,30.02,East,83,5.8,5.8,47,0.00,CLR,OVC,0.00,0.0,WeatherDisplay:10.37,2013-05-04 20:23:00,
2013-05-04 15:28:00,72.7,51.3,30.02,SSW,192,5.8,5.8,47,0.00,CLR,OVC,0.00,0.0,WeatherDisplay:10.37,2013-05-04 20:28:00,
2013-05-04 15:33:00,72.5,51.1,30.02,ESE,111,5.8,5.8,47,0.00,CLR,OVC,0.00,0.0,WeatherDisplay:10.37,2013-05-04 20:33:00,
2013-05-04 15:38:00,72.3,51.0,30.02,ENE,74,8.1,8.1,47,0.00,CLR,OVC,0.00,0.0,WeatherDisplay:10.37,2013-05-04 20:38:00,
2013-05-04 15:43:00,72.3,51.0,30.02,East,93,8.1,8.1,47,0.00,CLR,OVC,0.00,0.0,WeatherDisplay:10.37,2013-05-04 20:43:00,
2013-05-04 15:48:00,72.5,51.1,30.02,East,93,4.6,4.6,47,0.00,CLR,OVC,0.00,0.0,WeatherDisplay:10.37,2013-05-04 20:48:00,
2013-05-04 15:53:00,72.7,51.3,30.02,ENE,70,3.5,3.6,47,0.00,CLR,OVC,0.00,0.0,WeatherDisplay:10.37,2013-05-04 20:53:00,
2013-05-04 15:58:00,72.7,51.3,30.02,SE,138,5.4,5.4,47,0.00,CLR,OVC,0.00,0.0,WeatherDisplay:10.37,2013-05-04 20:58:00,
2013-05-04 16:03:00,72.5,51.1,30.02,East,92,3.5,3.5,47,0.00,CLR,OVC,0.00,0.0,WeatherDisplay:10.37,2013-05-04 21:03:00,
2013-05-04 16:08:00,72.0,50.6,30.02,ENE,77,5.8,5.8,47,0.00,CLR,OVC,0.00,0.0,WeatherDisplay:10.37,2013-05-04 21:08:00,
2013-05-04 16:13:00,71.2,50.0,30.02,ESE,103,3.5,3.5,47,0.00,CLR,OVC,0.00,0.0,WeatherDisplay:10.37,2013-05-04 21:13:00,
2013-05-04 16:18:00,71.2,50.0,30.02,West,277,5.4,5.4,47,0.00,CLR,OVC,0.00,0.0,WeatherDisplay:10.37,2013-05-04 21:18:00,
2013-05-04 16:23:00,71.6,50.3,30.02,SE,138,5.8,0.0,47,0.00,CLR,OVC,0.00,0.0,WeatherDisplay:10.37,2013-05-04 21:23:00,
2013-05-04 16:28:00,72.0,50.6,30.02,NNE,15,3.5,3.5,47,0.00,CLR,OVC,0.00,0.0,WeatherDisplay:10.37,2013-05-04 21:28:00,
2013-05-04 16:33:00,72.7,51.3,30.02,NE,44,4.6,4.6,47,0.00,CLR,OVC,0.00,0.0,WeatherDisplay:10.37,2013-05-04 21:33:00,
2013-05-04 16:38:00,73.0,51.6,30.02,ENE,68,8.1,8.1,47,0.00,CLR,OVC,0.00,0.0,WeatherDisplay:10.37,2013-05-04 21:38:00,
2013-05-04 16:42:00,72.7,51.3,30.02,NE,54,5.8,5.8,47,0.00,CLR,OVC,0.00,0.0,WeatherDisplay:10.37,2013-05-04 21:42:00,
2013-05-04 16:47:00,72.1,50.8,30.02,NE,55,5.8,5.8,47,0.00,CLR,OVC,0.00,0.0,WeatherDisplay:10.37,2013-05-04 21:47:00,
2013-05-04 16:52:00,72.0,50.6,30.02,East,88,3.5,3.5,47,0.00,CLR,OVC,0.00,0.0,WeatherDisplay:10.37,2013-05-04 21:52:00,
2013-05-04 16:57:00,71.6,50.3,30.02,East,92,3.5,3.5,47,0.00,CLR,OVC,0.00,0.0,WeatherDisplay:10.37,2013-05-04 21:57:00,
2013-05-04 17:02:00,71.2,50.0,30.02,East,99,3.5,0.0,47,0.00,CLR,OVC,0.00,0.0,WeatherDisplay:10.37,2013-05-04 22:02:00,
2013-05-04 17:07:00,71.1,49.8,30.02,ESE,119,5.8,5.8,47,0.00,CLR,OVC,0.00,0.0,WeatherDisplay:10.37,2013-05-04 22:07:00,
2013-05-04 17:12:00,70.9,49.6,30.02,East,88,3.5,3.5,47,0.00,CLR,OVC,0.00,0.0,WeatherDisplay:10.37,2013-05-04 22:12:00,
2013-05-04 17:17:00,70.9,49.6,30.02,SSW,213,3.5,0.0,47,0.00,CLR,OVC,0.00,0.0,WeatherDisplay:10.37,2013-05-04 22:17:00,
2013-05-04 17:22:00,70.9,49.6,30.02,East,90,5.8,5.8,47,0.00,CLR,OVC,0.00,0.0,WeatherDisplay:10.37,2013-05-04 22:22:00,
2013-05-04 17:27:00,71.1,50.4,30.02,NNE,30,2.3,3.1,48,0.00,CLR,OVC,0.00,0.0,WeatherDisplay:10.37,2013-05-04 22:27:00,
2013-05-04 17:32:00,71.2,50.5,30.02,East,86,3.5,3.6,48,0.00,CLR,OVC,0.00,0.0,WeatherDisplay:10.37,2013-05-04 22:32:00,
2013-05-04 17:37:00,71.4,50.7,30.02,ENE,66,4.0,4.0,48,0.00,CLR,OVC,0.00,0.0,WeatherDisplay:10.37,2013-05-04 22:37:00,
2013-05-04 17:42:00,71.2,50.5,30.02,ESE,102,3.5,3.5,48,0.00,CLR,OVC,0.00,0.0,WeatherDisplay:10.37,2013-05-04 22:42:00,
2013-05-04 17:47:00,71.2,50.5,30.02,East,101,4.6,4.6,48,0.00,CLR,OVC,0.00,0.0,WeatherDisplay:10.37,2013-05-04 22:47:00,
2013-05-04 17:52:00,70.9,50.2,30.02,ESE,102,4.6,5.4,48,0.00,CLR,OVC,0.00,0.0,WeatherDisplay:10.37,2013-05-04 22:52:00,
2013-05-04 17:57:00,70.7,50.0,30.02,ENE,63,8.1,8.1,48,0.00,CLR,OVC,0.00,0.0,WeatherDisplay:10.37,2013-05-04 22:57:00,
2013-05-04 18:02:00,71.1,50.4,30.02,ENE,64,8.1,8.1,48,0.00,CLR,OVC,0.00,0.0,WeatherDisplay:10.37,2013-05-04 23:02:00,
2013-05-04 18:07:00,70.9,50.2,30.02,NE,55,5.8,5.8,48,0.00,CLR,OVC,0.00,0.0,WeatherDisplay:10.37,2013-05-04 23:07:00,
2013-05-04 18:12:00,70.5,49.9,30.02,ESE,102,5.8,5.8,48,0.00,CLR,OVC,0.00,0.0,WeatherDisplay:10.37,2013-05-04 23:12:00,
2013-05-04 18:17:00,70.3,49.7,30.02,East,83,3.5,3.6,48,0.00,CLR,OVC,0.00,0.0,WeatherDisplay:10.37,2013-05-04 23:17:00,
2013-05-04 18:22:00,70.5,49.9,30.02,ENE,65,3.5,4.0,48,0.00,CLR,OVC,0.00,0.0,WeatherDisplay:10.37,2013-05-04 23:22:00,
2013-05-04 18:27:00,70.9,50.2,30.02,ESE,107,3.5,3.5,48,0.00,CLR,OVC,0.00,0.0,WeatherDisplay:10.37,2013-05-04 23:27:00,
2013-05-04 18:32:00,71.1,50.4,30.02,ESE,118,3.5,3.5,48,0.00,CLR,OVC,0.00,0.0,WeatherDisplay:10.37,2013-05-04 23:32:00,
2013-05-04 18:37:00,71.1,50.4,30.02,East,101,2.3,0.0,48,0.00,CLR,OVC,0.00,0.0,WeatherDisplay:10.37,2013-05-04 23:37:00,
2013-05-04 18:42:00,70.7,50.0,30.02,NE,54,3.5,3.5,48,0.00,CLR,OVC,0.00,0.0,WeatherDisplay:10.37,2013-05-04 23:42:00,
2013-05-04 18:47:00,70.3,49.7,30.02,ENE,66,0.0,0.0,48,0.00,CLR,OVC,0.00,0.0,WeatherDisplay:10.37,2013-05-04 23:47:00,
2013-05-04 18:52:00,70.2,49.5,30.02,North,357,3.5,0.0,48,0.00,CLR,OVC,0.00,0.0,WeatherDisplay:10.37,2013-05-04 23:52:00,
2013-05-04 18:57:00,69.8,49.2,30.02,East,91,0.0,0.0,48,0.00,CLR,OVC,0.00,0.0,WeatherDisplay:10.37,2013-05-04 23:57:00,
2013-05-04 19:02:00,69.6,49.1,30.02,East,96,2.3,0.0,48,0.00,CLR,OVC,0.00,0.0,WeatherDisplay:10.37,2013-05-05 00:02:00,
2013-05-04 19:07:00,69.4,48.9,30.02,East,80,0.0,0.0,48,0.00,CLR,OVC,0.00,0.0,WeatherDisplay:10.37,2013-05-05 00:07:00,
2013-05-04 19:12:00,69.1,48.6,30.05,East,85,0.0,0.0,48,0.00,CLR,OVC,0.00,0.0,WeatherDisplay:10.37,2013-05-05 00:12:00,
2013-05-04 19:17:00,68.7,48.2,30.05,East,92,3.5,3.5,48,0.00,CLR,OVC,0.00,0.0,WeatherDisplay:10.37,2013-05-05 00:17:00,
2013-05-04 19:22:00,68.2,47.7,30.05,ESE,109,0.0,0.0,48,0.00,CLR,OVC,0.00,0.0,WeatherDisplay:10.37,2013-05-05 00:22:00,
2013-05-04 19:27:00,67.8,48.0,30.05,East,100,3.5,0.0,49,0.00,CLR,OVC,0.00,0.0,WeatherDisplay:10.37,2013-05-05 00:27:00,
2013-05-04 19:32:00,67.5,47.6,30.05,East,97,3.5,0.0,49,0.00,CLR,OVC,0.00,0.0,WeatherDisplay:10.37,2013-05-05 00:32:00,
2013-05-04 19:37:00,67.1,47.8,30.05,East,97,0.0,0.0,50,0.00,CLR,OVC,0.00,0.0,WeatherDisplay:10.37,2013-05-05 00:37:00,
2013-05-04 19:42:00,66.6,47.3,30.05,East,97,0.0,0.0,50,0.00,CLR,OVC,0.00,0.0,WeatherDisplay:10.37,2013-05-05 00:42:00,
2013-05-04 19:47:00,66.0,47.4,30.05,East,97,0.0,0.0,51,0.00,CLR,OVC,0.00,0.0,WeatherDisplay:10.37,2013-05-05 00:47:00,
2013-05-04 19:52:00,65.7,47.5,30.05,East,97,0.0,0.0,52,0.00,CLR,OVC,0.00,0.0,WeatherDisplay:10.37,2013-05-05 00:52:00,
2013-05-04 19:57:00,65.1,47.6,30.05,East,97,0.0,0.0,53,0.00,CLR,OVC,0.00,0.0,WeatherDisplay:10.37,2013-05-05 00:57:00,
2013-05-04 20:02:00,64.6,48.0,30.05,East,97,0.0,0.0,55,0.00,CLR,OVC,0.00,0.0,WeatherDisplay:10.37,2013-05-05 01:02:00,
2013-05-04 20:07:00,63.9,47.9,30.05,East,97,0.0,0.0,56,0.00,CLR,OVC,0.00,0.0,WeatherDisplay:10.37,2013-05-05 01:07:00,
2013-05-04 20:12:00,63.3,48.3,30.05,East,97,0.0,0.0,58,0.00,CLR,OVC,0.00,0.0,WeatherDisplay:10.37,2013-05-05 01:12:00,
2013-05-04 20:17:00,62.6,47.6,30.05,East,97,0.0,0.0,58,0.00,CLR,OVC,0.00,0.0,WeatherDisplay:10.37,2013-05-05 01:17:00,
2013-05-04 20:22:00,61.9,47.4,30.05,East,97,0.0,0.0,59,0.00,CLR,OVC,0.00,0.0,WeatherDisplay:10.37,2013-05-05 01:22:00,
2013-05-04 20:27:00,61.3,47.3,30.05,East,97,0.0,0.0,60,0.00,CLR,OVC,0.00,0.0,WeatherDisplay:10.37,2013-05-05 01:27:00,
2013-05-04 20:32:00,60.8,46.8,30.05,East,97,0.0,0.0,60,0.00,CLR,OVC,0.00,0.0,WeatherDisplay:10.37,2013-05-05 01:32:00,
2013-05-04 20:37:00,60.4,46.9,30.05,East,97,0.0,0.0,61,0.00,CLR,OVC,0.00,0.0,WeatherDisplay:10.37,2013-05-05 01:37:00,
2013-05-04 20:42:00,60.1,47.0,30.05,East,97,0.0,0.0,62,0.00,CLR,OVC,0.00,0.0,WeatherDisplay:10.37,2013-05-05 01:42:00,
2013-05-04 20:47:00,59.7,47.1,30.05,East,97,0.0,0.0,63,0.00,CLR,OVC,0.00,0.0,WeatherDisplay:10.37,2013-05-05 01:47:00,
2013-05-04 20:52:00,59.4,47.2,30.05,East,97,0.0,0.0,64,0.00,CLR,OVC,0.00,0.0,WeatherDisplay:10.37,2013-05-05 01:52:00,
2013-05-04 20:57:00,59.2,47.0,30.08,East,97,0.0,0.0,64,0.00,CLR,OVC,0.00,0.0,WeatherDisplay:10.37,2013-05-05 01:57:00,
2013-05-04 21:02:00,58.8,47.5,30.08,East,97,0.0,0.0,66,0.00,CLR,OVC,0.00,0.0,WeatherDisplay:10.37,2013-05-05 02:02:00,
2013-05-04 21:07:00,58.5,47.1,30.08,East,97,0.0,0.0,66,0.00,CLR,OVC,0.00,0.0,WeatherDisplay:10.37,2013-05-05 02:07:00,
2013-05-04 21:12:00,58.1,47.2,30.08,East,97,0.0,0.0,67,0.00,CLR,OVC,0.00,0.0,WeatherDisplay:10.37,2013-05-05 02:12:00,
2013-05-04 21:17:00,57.7,47.2,30.08,East,97,0.0,0.0,68,0.00,CLR,OVC,0.00,0.0,WeatherDisplay:10.37,2013-05-05 02:17:00,
2013-05-04 21:22:00,57.6,47.8,30.08,East,97,0.0,0.0,70,0.00,CLR,OVC,0.00,0.0,WeatherDisplay:10.37,2013-05-05 02:22:00,
2013-05-04 21:27:00,57.2,47.5,30.05,East,97,0.0,0.0,70,0.00,CLR,OVC,0.00,0.0,WeatherDisplay:10.37,2013-05-05 02:27:00,
2013-05-04 21:32:00,57.0,48.1,30.05,East,97,0.0,0.0,72,0.00,CLR,OVC,0.00,0.0,WeatherDisplay:10.37,2013-05-05 02:32:00,
2013-05-04 21:37:00,56.8,47.9,30.05,East,97,0.0,0.0,72,0.00,CLR,OVC,0.00,0.0,WeatherDisplay:10.37,2013-05-05 02:37:00,
2013-05-04 21:42:00,56.7,48.1,30.08,East,97,0.0,0.0,73,0.00,CLR,OVC,0.00,0.0,WeatherDisplay:10.37,2013-05-05 02:42:00,
2013-05-04 21:47:00,56.5,47.9,30.08,East,97,0.0,0.0,73,0.00,CLR,OVC,0.00,0.0,WeatherDisplay:10.37,2013-05-05 02:47:00,
2013-05-04 21:52:00,56.3,48.1,30.08,East,97,0.0,0.0,74,0.00,CLR,OVC,0.00,0.0,WeatherDisplay:10.37,2013-05-05 02:52:00,
2013-05-04 21:57:00,56.1,47.9,30.08,East,97,0.0,0.0,74,0.00,CLR,OVC,0.00,0.0,WeatherDisplay:10.37,2013-05-05 02:57:00,
2013-05-04 22:02:00,55.9,47.8,30.08,East,97,0.0,0.0,74,0.00,CLR,OVC,0.00,0.0,WeatherDisplay:10.37,2013-05-05 03:02:00,
2013-05-04 22:07:00,55.8,48.0,30.08,East,97,0.0,0.0,75,0.00,CLR,OVC,0.00,0.0,WeatherDisplay:10.37,2013-05-05 03:07:00,
2013-05-04 22:12:00,55.8,48.0,30.08,East,97,0.0,0.0,75,0.00,CLR,OVC,0.00,0.0,WeatherDisplay:10.37,2013-05-05 03:12:00,
2013-05-04 22:17:00,55.6,47.8,30.08,East,97,0.0,0.0,75,0.00,CLR,OVC,0.00,0.0,WeatherDisplay:10.37,2013-05-05 03:17:00,
2013-05-04 22:22:00,55.6,48.1,30.08,East,97,0.0,0.0,76,0.00,CLR,OVC,0.00,0.0,WeatherDisplay:10.37,2013-05-05 03:22:00,
2013-05-04 22:27:00,55.4,48.0,30.08,East,97,0.0,0.0,76,0.00,CLR,OVC,0.00,0.0,WeatherDisplay:10.37,2013-05-05 03:27:00,
2013-05-04 22:32:00,55.4,48.0,30.08,East,97,0.0,0.0,76,0.00,CLR,OVC,0.00,0.0,WeatherDisplay:10.37,2013-05-05 03:32:00,
2013-05-04 22:37:00,55.2,48.1,30.08,East,97,0.0,0.0,77,0.00,CLR,OVC,0.00,0.0,WeatherDisplay:10.37,2013-05-05 03:37:00,
2013-05-04 22:42:00,55.0,48.0,30.08,East,97,0.0,0.0,77,0.00,CLR,OVC,0.00,0.0,WeatherDisplay:10.37,2013-05-05 03:42:00,
2013-05-04 22:47:00,54.9,47.8,30.08,East,97,0.0,0.0,77,0.00,CLR,OVC,0.00,0.0,WeatherDisplay:10.37,2013-05-05 03:47:00,
2013-05-04 22:52:00,54.7,47.6,30.08,East,97,0.0,0.0,77,0.00,CLR,OVC,0.00,0.0,WeatherDisplay:10.37,2013-05-05 03:52:00,
2013-05-04 22:57:00,54.3,47.6,30.08,East,97,0.0,0.0,78,0.00,CLR,OVC,0.00,0.0,WeatherDisplay:10.37,2013-05-05 03:57:00,
2013-05-04 23:01:00,54.1,47.4,30.08,East,97,0.0,0.0,78,0.00,CLR,OVC,0.00,0.0,WeatherDisplay:10.37,2013-05-05 04:01:00,
2013-05-04 23:06:00,53.8,47.1,30.08,East,97,0.0,0.0,78,0.00,CLR,OVC,0.00,0.0,WeatherDisplay:10.37,2013-05-05 04:06:00,
2013-05-04 23:11:00,53.4,47.1,30.08,East,97,0.0,0.0,79,0.00,CLR,OVC,0.00,0.0,WeatherDisplay:10.37,2013-05-05 04:11:00,
2013-05-04 23:16:00,53.2,47.2,30.08,East,97,0.0,0.0,80,0.00,CLR,OVC,0.00,0.0,WeatherDisplay:10.37,2013-05-05 04:16:00,
2013-05-04 23:21:00,52.9,46.9,30.08,East,97,0.0,0.0,80,0.00,CLR,OVC,0.00,0.0,WeatherDisplay:10.37,2013-05-05 04:21:00,
2013-05-04 23:26:00,52.7,47.0,30.08,East,97,0.0,0.0,81,0.00,CLR,OVC,0.00,0.0,WeatherDisplay:10.37,2013-05-05 04:26:00,
2013-05-04 23:31:00,52.3,47.0,30.08,East,97,0.0,0.0,82,0.00,CLR,OVC,0.00,0.0,WeatherDisplay:10.37,2013-05-05 04:31:00,
2013-05-04 23:36:00,52.2,47.2,30.08,East,97,0.0,0.0,83,0.00,CLR,OVC,0.00,0.0,WeatherDisplay:10.37,2013-05-05 04:36:00,
2013-05-04 23:41:00,52.0,47.3,30.08,East,97,0.0,0.0,84,0.00,CLR,OVC,0.00,0.0,WeatherDisplay:10.37,2013-05-05 04:41:00,
2013-05-04 23:46:00,51.8,47.4,30.08,East,97,0.0,0.0,85,0.00,CLR,OVC,0.00,0.0,WeatherDisplay:10.37,2013-05-05 04:46:00,
2013-05-04 23:51:00,51.6,47.6,30.08,East,97,0.0,0.0,86,0.00,CLR,OVC,0.00,0.0,WeatherDisplay:10.37,2013-05-05 04:51:00,
2013-05-04 23:56:00,51.6,47.9,30.08,East,97,0.0,0.0,87,0.00,CLR,OVC,0.00,0.0,WeatherDisplay:10.37,2013-05-05 04:56:00,